Location: Gull Harbor
(47.1000°N, 122.9000°W)
Time: 15:38:12
(UTC-07:00)

ISS - Pass Details

Date: 24 March 2019
Orbit: 408 x 410 km, 51.6° (Epoch: 23 April)

Event Time Altitude Azimuth Distance (km) Brightness Sun altitude
Rises 22:20:20 0° 275° (W) 2,335 0.9 -27.7°
Reaches altitude 10° 22:22:31 10° 284° (WNW) 1,474 -0.2 -28.0°
Enters shadow 22:23:37 18° 294° (WNW) 1,079 -1.0 -28.1°
